Tracking 19796 objects as of 19-Jul-2019
HD Live streaming from Space Station
objects crossing your sky now

PSLV R/B

Track PSLV R/B now!
10-day predictions


NORAD ID: 37842
Int'l Code: 2011-058E
Perigee: 785.6 km
Apogee: 872.0 km
Inclination: 19.8 °
Period: 101.3 minutes
Semi major axis: 7199 km
RCS: 0.1259 m2 (medium)
Launch date: October 12, 2011
Source: India (IND)
Launch site: SRIHARIKOTA (SRI)

Note: This is a ROCKET BODY
aabbcc
Your satellite tracking list
Your tracking list is empty




NASA's NSSDC Master Catalog

Two Line Element Set (TLE):
1 37842U 11058E   19200.45816366  .00000287  00000-0  54124-5 0  9998
2 37842  19.7924 243.7590 0060024 130.6247 229.9395 14.21102337404026
Source of the keplerian elements: AFSPC